Regional Weather Roundup
Issued by NWS

Home | Current Version | Previous Version | Graphics & Text | Print | Product List | Glossary On
Versions: 1 2 3 4 5 6 7 8 9 10 11 12 13 14 15 16 17 18 19 20 21 22 23 24 25 26 27 28 29 30 31 32 33 34 35 36 37 38 39 40 41 42 43 44 45 46 47 48 49 50
000
ASUS45 KPSR 020000
RWRAZ

ARIZONA HOURLY REGIONAL WEATHER ROUNDUP
NATIONAL WEATHER SERVICE PHOENIX AZ
500 PM MST WED JUL 01 2015

NOTE: FAIR INDICATES FEW OR NO CLOUDS BELOW 12,000 FEET WITH NO
SIGNIFICANT WEATHER AND/OR OBSTRUCTIONS TO VISIBILITY.

AZZ001>003-036-020100-
NORTHWEST ARIZONA

CITY           SKY/WX    TMP DP  RH WIND       PRES   REMARKS
KINGMAN        PTSUNNY   89  56  32 SW21      29.97F
6HR MIN TEMP:  89; 6HR MAX TEMP:  94;

$$

AZZ004>008-015-016-018-020100-
NORTH CENTRAL ARIZONA

CITY           SKY/WX    TMP DP  RH WIND       PRES   REMARKS
GRAND CANYON   CLOUDY    78  54  43 SW7       30.18F
6HR MIN TEMP:  75; 6HR MAX TEMP:  92;

WILLIAMS       CLOUDY    77  64  65 SE15      30.27F
PRESCOTT       PTSUNNY   86  57  37 W15       30.09F
6HR MIN TEMP:  80; 6HR MAX TEMP:  88;

FLAGSTAFF      NOT AVBL
PAYSON         SUNNY     88  55  33 W8G20     30.10F
PAGE           MOSUNNY  104  39  10 CALM      29.88F
6HR MIN TEMP:  96; 6HR MAX TEMP: 107;

$$

AZZ009>014-017-020100-
NORTHEAST ARIZONA

CITY           SKY/WX    TMP DP  RH WIND       PRES   REMARKS
WINSLOW        NOT AVBL
SAINT JOHNS    PTSUNNY   90  56  31 SW18G30   30.03F
6HR MIN TEMP:  85; 6HR MAX TEMP:  95;

SHOW LOW       CLOUDY    77  54  44 S9        30.16F
$$

AZZ023-020100-
GREATER PHOENIX AREA

CITY           SKY/WX    TMP DP  RH WIND       PRES   REMARKS
PHOENIX        PTSUNNY  104  57  21 W17G25    29.78F HX 103
6HR MIN TEMP:  93; 6HR MAX TEMP: 106;

GLENDALE       PTSUNNY  102  59  24 S20G31    29.80S HX 102
LUKE AFB       MOSUNNY  102  57  22 NW13G23   29.78S HX 101
DEER VALLEY    MOSUNNY  101  56  22 W13G22    29.80S HX 100
6HR MIN TEMP:  91; 6HR MAX TEMP: 103;

SCOTTSDALE     MOSUNNY  101  58  24 SW13G22   29.82F HX 100
6HR MIN TEMP:  92; 6HR MAX TEMP: 103;

MESA-FALCON    PTSUNNY  102  57  22 SW14G21   29.81F HX 101
MESA-GATEWAY   PTSUNNY  100  59  25 W14G30    29.84S HX 100
CHANDLER       PTSUNNY  102  59  24 SW21      29.81S HX 102
$$

AZZ027-028-020100-
SOUTHWEST MARICOPA COUNTY AND PINAL COUNTY

CITY           SKY/WX    TMP DP  RH WIND       PRES   REMARKS
CASA GRANDE    CLOUDY    99  61  28 W18       29.84S
6HR MIN TEMP:  90; 6HR MAX TEMP:  99;

GILA BEND      FAIR      98  61  29 W10G25    29.83S
6HR MIN TEMP:  91; 6HR MAX TEMP: 100;

$$

AZZ503-504-507>509-020100-
SOUTHEAST ARIZONA

CITY           SKY/WX    TMP DP  RH WIND       PRES   REMARKS
TUCSON         CLOUDY    92  59  33 W12       29.96R
6HR MIN TEMP:  90; 6HR MAX TEMP:  96;

DAVIS-MONTHAN  CLOUDY    91  58  32 NW9       29.95R
6HR MIN TEMP:  87; 6HR MAX TEMP:  93;

RYAN FIELD     SUNNY     91  61  35 W8        29.95R
NOGALES        CLOUDY    73  66  78 NE5       30.07F
6HR MIN TEMP:  68; 6HR MAX TEMP:  90; 6HR PCP:  0.30;

SIERRA VISTA   CLOUDY    80  61  52 W17G25    30.11R
6HR MIN TEMP:  78; 6HR MAX TEMP:  89; 6HR PCP: TRACE;

SAFFORD        SUNNY    100  48  17 SW7       29.86F
6HR MIN TEMP:  90; 6HR MAX TEMP: 101;

$$

AZZ020-021-025-026-031-020100-
SOUTHWEST ARIZONA

CITY           SKY/WX    TMP DP  RH WIND       PRES   REMARKS
YUMA           NOT AVBL
$$

CAZ031-033-041-043-047-048-061-020100-
SOUTHERN CALIFORNIA

CITY           SKY/WX    TMP DP  RH WIND       PRES   REMARKS
DOWNTOWN L.A.  CLOUDY    77  59  53 CALM      29.88F
6HR MIN TEMP:  77; 6HR MAX TEMP:  84;

L.A. AIRPORT   CLOUDY    72  61  68 W9        29.89F
6HR MIN TEMP:  70; 6HR MAX TEMP:  76;

SAN DIEGO      CLOUDY    75  66  73 SW9       29.92S
6HR MIN TEMP:  74; 6HR MAX TEMP:  81;

BURBANK        CLOUDY    82  54  37 S8        29.88F
6HR MIN TEMP:  82; 6HR MAX TEMP:  92;

ONTARIO        CLOUDY    86  59  39 SW12      29.89R
6HR MIN TEMP:  85; 6HR MAX TEMP:  92;

RIVERSIDE      CLOUDY    87  54  32 W10       29.88S
6HR MIN TEMP:  85; 6HR MAX TEMP:  92;

PALM SPRINGS   PTSUNNY   96  62  32 S3        29.83F
6HR MIN TEMP:  87; 6HR MAX TEMP:  99;

EL CENTRO NAS  CLOUDY    90  69  50 SE13      29.82S
6HR MIN TEMP:  90; 6HR MAX TEMP:  97; 6HR PCP: TRACE;

IMPERIAL       CLOUDY    92  68  45 SE10      29.80F
6HR MIN TEMP:  91; 6HR MAX TEMP:  97; 6HR PCP: TRACE;

BLYTHE         PTSUNNY   98  64  32 SW8G21    29.79F HX 100
6HR MIN TEMP:  82; 6HR MAX TEMP:  99;

$$

NVZ020-UTZ003-020100-
SOUTHERN NEVADA-UTAH

CITY           SKY/WX    TMP DP  RH WIND       PRES   REMARKS
LAS VEGAS      NOT AVBL
SALT LAKE CITY PTSUNNY   96  50  20 NW12G18   29.99F
6HR MIN TEMP:  91; 6HR MAX TEMP:  98;

$$

NMZ009-TXZ055-020100-
NEW MEXICO-WEST TEXAS

CITY           SKY/WX    TMP DP  RH WIND       PRES   REMARKS
ALBUQUERQUE    MOSUNNY   94  48  20 SW9G17    30.02F
6HR MIN TEMP:  83; 6HR MAX TEMP:  95;

EL PASO        MOSUNNY   96  47  18 VRB5      29.94F
6HR MIN TEMP:  87; 6HR MAX TEMP:  97;

$$


........................KEY........................
SKY/WX - SKY CONDITION/WEATHER
TMP    - TEMPERATURE IN FAHRENHEIT
DP     - DEW POINT IN FAHRENHEIT
RH     - RELATIVE HUMIDITY IN PERCENT
WIND   - DIRECTION AND SPEED IN MILES PER HOUR (MPH)
VRB    - VARIABLE WIND DIRECTION
PRES   - MEAN SEA LEVEL PRESSURE IN INCHES OF MERCURY
         F - FALLING PRESSURE   R - RISING PRESSURE
         S - STEADY PRESSURE
VSB    - VISIBILITY IN MILES
HX     - HEAT INDEX IN FAHRENHEIT
WCI    - WIND CHILL INDEX IN FAHRENHEIT
TC     - TEMPERATURE IN CELSIUS WHICH IS ALSO KNOWN AS
         TEMPERATURE IN CENTIGRADE
AFB    - AIR FORCE BASE
         LUKE AFB IS LUKE AIR FORCE BASE
         DAVIS-MONTHAN IS DAVIS-MONTHAN AIR FORCE BASE
NAS    - NAVAL AIR STATION
         EL CENTRO NAS IS EL CENTRO NAVAL AIR STATION
N/A    - NOT AVAILABLE



USA.gov is the U.S. government's official web portal to all federal, state and local government web resources and services.